www.pogodaiklimat.ru

Погода и климат >> Архив погоды >> Гана >> Wa


ПОГОДА в Wa

  • Прогноз погоды в Wa
  • Монитор погоды в Wa
  • Климат города

АРХИВ ПОГОДЫ в Wa

Время (UTC), дата Ветер
(напр.,м/с)
 
Видим.   Явления Облачность Т
(С)
Тd
(С)
f
(%)
Тe
(С)
Тes
(С)
Комфортность P
(гПа)
Po
(гПа)
Тmin
(С)
Tmax
(С)
R
(мм)
R24
(мм)
S
(см)
18 20.06 ЮЗ 2 12 км 9/5 480 м
[Cu med, cong Ac trans Cs]
+28.5 +21.0 64 +36 +36 очень
душно
1009.8 1010.0 +29.5 3
21 20.06 ЮВ 2 12 км зарница 9/9 360 м
[Cb cap]
+25.5 +22.3 82 +33 +33 очень
душно
1013.8 1014.0
06 21.06 ЮЗ 2 12 км {гроза, дождь} 9/9 360 м
[Sc]
+23.5 +22.0 91 +30 +30 очень
душно
1013.7 1014.0 +23.0 25
09 21.06 ЮЗ 1 12 км 9/9 360 м
[Sc]
+24.5 +22.8 90 +32 +33 очень
душно
1015.3 1015.0
12 21.06 ЮЗ 3 12 км 9/9 400 м
[Cu Sc]
+27.5 +22.9 76 +37 +38 очень
душно
1015.1 1015.0
15 21.06 ЮЗ 3 12 км 9/9 400 м
[Cu Sc]
+29.2 +22.0 65 +38 +39 очень
душно
1012.2 1012.0
18 21.06 ЮЗ 1 13 км 6/5 480 м
[Cu med, cong Ci sp]
+29.0 +22.2 67 +38 +38 очень
душно
1012.0 1012.0 +29.2
21 21.06 0 н/о
06 22.06 штиль 0 13 км 9/0
[Ac trans]
+25.7 +23.6 88 +35 +35 очень
душно
1014.6 1015.0 +24.2
09 22.06 СВ 1 13 км 6/0
[Cs]
+28.5 +23.5 74 +39 +49 очень
душно
1015.7 1016.0
12 22.06 СЗ 2 13 км 9/4 480 м
[Cu med, cong Cs]
+31.5 +22.2 58 +41 +52 опасность
перегрева
1013.2 1013.0
15 22.06 СВ 1 13 км 9/6 480 м
[Cu med, cong Cs]
+33.3 +21.8 51 +42 +47 опасность
перегрева
1010.6 1011.0
21 22.06 СВ 1 12 км 4/0
[Ci sp]
+29.5 +24.3 74 +41 +41 опасность
перегрева
1012.8 1013.0
00 23.06 штиль 0 12 км 9/0
[Ac trans]
+27.8 +24.3 81 +39 +39 очень
душно
1012.5 1013.0
06 23.06 ЮЗ 1 13 км 8/0
[Ac trans Ci sp]
+26.5 +23.8 85 +36 +36 очень
душно
1011.6 1012.0 +26.4
09 23.06 ЮЗ 1 3300 м 3/0
[Ci sp]
+29.5 +23.5 70 +40 +52 опасность
солнечного
удара
1012.2 1012.0
12 23.06 СЗ 2 13 км 6/4 480 м
[Cu med, cong Ci sp]
+34.0 +23.1 53 +44 +57 опасность
перегрева
1010.6 1011.0
15 23.06 ЮЗ 1 13 км 4/4 480 м
[Cu med, cong]
+34.5 +22.9 51 +44 +53 опасность
перегрева
1007.4 1007.0
18 23.06 ЮЗ 2 13 км 5/0
[Ci sp]
+33.5 +23.3 55 +44 +44 опасность
перегрева
1007.3 1007.0 +34.5
06 24.06 ЮЗ 3 12 км в посл. час гроза {дождь} 9/6 360 м
[Cb cap Ac trans]
+22.0 +21.0 94 +28 +28 душно 1012.4 1012.0 +22.0 45
12 24.06 ЮЗ 2 14 км 9/6 400 м
[Sc Ac trans]
+27.0 +21.6 72 +34 +39 очень
душно
1012.2 1012.0
15 24.06 СВ 1 14 км 9/9 400 м
[Cu Sc]
+28.0 +22.7 73 +37 +39 очень
душно
1011.0 1011.0
21 24.06 штиль 0 12 км зарница {дождь} 8/6 400 м
[Cb cap Ac trans Ci sp]
+25.5 +23.8 90 +35 +35 очень
душно
1011.7 1012.0
09 25.06 ЮЗ 1 12 км {дождь} 9/6 360 м
[Sc Ac trans]
+25.5 +22.3 82 +33 +36 очень
душно
1015.5 1016.0
12 25.06 ЮЗ 3 12 км 9/6 360 м
[Cu Sc Ac trans]
+28.0 +22.7 73 +37 +41 очень
душно
1014.3 1014.0
15 25.06 ЮЗ 3 10 км гроза, ливневой дождь 9/8 360 м
[Cb cap Ac As]
+24.5 +23.5 94 +33 +34 очень
душно
1013.5 1014.0
18 25.06 штиль 0 12 км в посл. час гроза {дождь} 9/3 360 м
[Sc Ac trans]
+24.5 +23.0 91 +32 +33 очень
душно
1012.7 1013.0 +28.0 10
21 25.06 штиль 0 12 км 8/4 400 м
[Sc Ac trans]
+24.0 +23.0 94 +32 +32 очень
душно
1014.6 1015.0
00 26.06 штиль 0 12 км 9/9 400 м
[Sc]
+24.0 +23.0 94 +32 +32 очень
душно
1014.7 1015.0
03 26.06 штиль 0 12 км 9/9 400 м
[Sc]
+23.8 +22.4 92 +31 +31 очень
душно
1013.2 1013.0
06 26.06 штиль 0 12 км 9/9 360 м
[Sc]
+23.7 +22.9 95 +31 +31 очень
душно
1010.5 1011.0 +23.5 10
09 26.06 СВ 1 12 км 9/9 330 м
[Sc]
+26.0 +23.6 87 +35 +37 очень
душно
1015.6 1016.0
12 26.06 СВ 5 12 км {дождь} 9/8 400 м
[Cu Sc Ac trans]
+24.0 +22.8 93 +32 +33 очень
душно
1014.7 1015.0 4
15 26.06 СВ 1 12 км 9/3 480 м
[Cu med, cong Cs]
+29.0 +22.2 67 +38 +47 очень
душно
1010.8 1011.0
18 26.06 СВ 2 12 км 9/6 400 м
[Cu Sc Ac trans Cs]
+28.0 +21.0 66 +35 +35 очень
душно
1011.4 1011.0 +29.0 4
00 27.06 ЮВ 2 12 км {дождь} 9/6 330 м
[Sc Ac trans]
+24.0 +22.3 90 +31 +31 очень
душно
1014.7 1015.0 3
03 27.06 штиль 0 12 км 9/4 360 м
[Sc Ac trans]
+23.5 +22.5 94 +31 +31 очень
душно
1013.0 1013.0
09 27.06 ЮВ 2 14 км 6/0
[Ci sp]
+26.6 +23.4 83 +36 +46 очень
душно
1015.0 1015.0
12 27.06 СВ 2 14 км 8/1 450 м
[Cu hum Ac trans]
+30.5 +22.3 62 +40 +51 опасность
солнечного
удара
1014.3 1014.0
15 27.06 ЮВ 2 14 км 6/6 500 м
[Cu med, cong]
+32.0 +22.4 57 +41 +46 опасность
перегрева
1012.2 1012.0

 

Местоположение метеостанции Wa (Гана): широта 10.05 долгота -2.50 высота над уровнем моря 323 м.

В архиве по умолчанию представлена погода в Wa за последнюю неделю. Архивные данные за месяц целиком и за предыдущие месяцы, начиная с января 2011 года, Вы можете получить, выбрав интересующий диапазон дат из раскрывающегося списка и нажав кнопку "Ввод!".

Внимание! Время в таблицах - всемирное. Для получения местного времени необходимо прибавить поправку, которая в Wa равна 1 ч.

Смотрите также архив погоды в соседних городах и на ближайших метеорологических станциях:

Погода в Gaoua (Буркина-Фасо) (81 км)
Погода в Bole (Гана) (113 км)
Погода в Navrongo (Гана) (180 км)
Погода в Tamale (Гана) (191 км)
Погода в Po (Буркина-Фасо) (192 км)
Погода в Boromo (Буркина-Фасо) (195 км)
Погода в Bondoukou (Кот-д'Ивуар) (225 км)
Погода в Bobo-Dioulasso (Буркина-Фасо) (235 км)
Погода в Wenchi (Гана) (260 км)
Погода в Ouagadougou (Буркина-Фасо) (277 км)

Пояснения к столбцам:

Ветер - указаны скорость ветра в м/с - средняя за 10 мин, порывы в срок и между сроками (в фигурных скобках) и направление, откуда дует ветер: С - северный, СВ - северо-восточный, В - восточный, ЮВ - юго-восточный, Ю - южный, ЮЗ - юго-западный, З - западный, СЗ - северо-западный.
Видимость - горизонтальная дальность видимости в метрах или километрах. При видимости от 1 до 10 км при отсутствии осадков обычно наблюдается дымка, при ухудшении видимости до 1 км и менее - туман. В сухую погоду видимость может ухудшаться дымом, пылью или мглою.
Явления - указаны атмосферные явления, наблюдавшиеся в срок или в последний час перед сроком; фигурными скобками обозначены явления, наблюдавшиеся между сроками (за 1-3 часа до срока); квадратными скобками обозначены град или гололедные отложения с указанием их диаметра в мм.
Облачность - указаны через наклонную черту общая и нижняя облачность в баллах и высота нижней границы облаков в метрах; квадратными скобками обозначены формы облаков: Ci - перистые, Cs - перисто-слоистые, Cc - перисто-кучевые, Ac - высококучевые, As - высокослоистые, Sc - слоисто-кучевые, Ns - слоисто-дождевые, Cu - кучевые, Cb - кучево-дождевые. Подробнее классификацию облаков см. в Атласе облаков (PDF).
T - Температура воздуха - температура, измеренная на высоте 2 м над землей.
Td - Температура точки росы - температура, при понижении до которой содержащийся в воздухе водяной пар достигнет насыщения.
f - Относительная влажность воздуха - влажноcть воздуха, измеренная на высоте 2 м над землей.
Te - Эффективная температура - температура, которую ощущает одетый по сезону человек в тени. Характеристика душности погоды. При расчете учитывается влияние влажности воздуха и скорости ветра на теплоощущения человека.
Tes - Эффективная температура на солнце - температура, которую ощущает человек, с поправкой на солнечный нагрев. Характеристика знойности погоды. Зависит от высоты солнца над горизонтом, облачности и скорости ветра. Ночью, в пасмурную погоду, а также при ветре 12 м/с и более поправка равна нулю.
P - Атмосферное давление - приведенное к уровню моря атмосферное давление.
Po - Атмосферное давление - измеренное на уровне метеостанции атмосферное давление.
Tmin - Минимальная температура - минимум температуры воздуха на высоте 2 м над землей.
Tmax - Максимальная температура - максимум температуры воздуха на высоте 2 м над землей.
R - Количество осадков - Количество выпавших осадков за период времени, мм. При наведении курсора мыши на число - период времени, за который выпало указанное количество осадков.
R24 - Количество осадков - Количество выпавших осадков за 24 часа, мм.
S - Снежный покров - Высота снежного покрова, см. При наведении курсора мыши на число - состояние снежного покрова и степень покрытия местности в баллах.